Home > Weather > Richmond > Past weeks

Flag for USA Past Weather in Richmond, Virginia, USA — Yesterday and Last 2 Weeks

Now
80 °F

Broken clouds.


Feels Like: 82 °F
Forecast: 65 / 89 °F
Wind: 9 mph from Southwest

Location: Richmond International Airport

Current Time: Aug 25, 2016 at 11:12:02 AM

Latest Report: Aug 25, 2016 at 9:54 AM


Visibility: 10 mi

Pressure: 30.16 "Hg

Humidity: 58%

Dew Point: 64 °F

Location of RichmondLocation

Past Weather in Richmond — Graph

°F

Richmond Temperature Yesterday

Maximum temperature yesterday: 84 °F (at 1:54 PM)
Minimum temperature yesterday: 61 °F (at 5:54 AM)
Average temperature yesterday: 73 °F

High & Low Weather Summary for the Past Weeks

 TemperatureHumidityPressure
High98 °F (Aug 14, 2:54 PM)100% (Aug 16, 6:54 AM)30.34 "Hg (Aug 16, 6:54 AM)
Low61 °F (Aug 24, 5:54 AM)36% (Aug 22, 1:54 PM)29.76 "Hg (Aug 21, 3:54 PM)
Average81 °F70%30.07 "Hg
* Reported Aug 10 9:54 AM — Aug 25 9:54 AM, Richmond, Weather by CustomWeather, © 2016

Note: Actual official high and low records may vary slightly from our data, if they occured in-between our weather recording intervals... More about our weather records

Advertising

Richmond Weather History for the Previous 24 Hours

Scroll right to see more
 ConditionsComfort  
Time TempWeatherWind HumidityBarometerVisibility
9:54 AM
Thu, Aug 25
80 °FBroken clouds.9 mph58%30.16 "Hg10 mi
8:54 AM77 °FBroken clouds.10 mph66%30.16 "Hg10 mi
7:54 AM71 °FPartly sunny.7 mph87%30.17 "Hg10 mi
6:54 AM66 °FPartly cloudy.6 mph96%30.18 "Hg10 mi
5:54 AM66 °FPassing clouds.5 mph93%30.16 "Hg10 mi
4:54 AM67 °FPassing clouds.6 mph90%30.16 "Hg10 mi
3:54 AM67 °FClear.3 mph90%30.17 "Hg10 mi
2:54 AM67 °FPassing clouds.5 mph90%30.17 "Hg10 mi
1:54 AM67 °FPassing clouds.6 mph90%30.19 "Hg10 mi
12:54 AM67 °FPassing clouds.3 mph87%30.20 "Hg10 mi
11:54 PM
Wed, Aug 24
67 °FPassing clouds.3 mph81%30.21 "Hg10 mi
10:54 PM71 °FPassing clouds.7 mph71%30.21 "Hg10 mi
9:54 PM69 °FPassing clouds.5 mph79%30.22 "Hg10 mi
8:54 PM72 °FPassing clouds.8 mph71%30.22 "Hg10 mi
7:54 PM77 °FPassing clouds.8 mph60%30.20 "Hg10 mi
6:54 PM81 °FScattered clouds.7 mph49%30.19 "Hg10 mi
5:54 PM84 °FPartly sunny.9 mph46%30.20 "Hg10 mi
4:54 PM83 °FPartly sunny.6 mph46%30.21 "Hg10 mi
3:54 PM83 °FBroken clouds.7 mph46%30.23 "Hg10 mi
2:54 PM84 °FBroken clouds.3 mph45%30.25 "Hg10 mi
1:54 PM84 °FBroken clouds.8 mph45%30.27 "Hg10 mi
12:54 PM83 °FScattered clouds.6 mph46%30.29 "Hg10 mi
11:54 AM81 °FBroken clouds.7 mph47%30.30 "Hg10 mi
Weather by CustomWeather, © 2016

See weather overviewHow to use our weather pages